Fábio Neves

Olheiro-Chefe - Parana
3 Dez 2028
Domingo
Processo

Personalidade

Adaptabilidade (10) Ambição (1) Controvérsia (6) Lealdade (17) Pressão (1) Profissionalismo (3) Espírito Esportivo (9) Temperamento (19)

Perfil

Estilo de Treinamento Democrático
Licença Nacional A
Determinação 3
Gestão de Pessoas 4
Motivação 5
Disciplina 11
Satisfação no Trabalho
100%
Fadiga
0%
Função Olheiro-Chefe
Salário 62.1K p/s
Contrato 14.03.2029

Desempenho

Comportamento Bom
Eficácia do Treinamento
33%
Desenvolvimento do Jogador
15%
Prevenção de Lesões
55%
Implementação Tática
35%

Eventos Recentes

Avaliou um jogador agora
Participou de uma reunião de recrutamento agora
Recomendou um alvo de transferência agora
Avaliou um jogador agora
Avaliou um jogador agora
Avaliou um jogador 7d atrás
Avaliou um jogador 7d atrás
Avaliou um jogador 7d atrás

Monitorando agora

231
Jogador Clube Status Habilidade Confiança Observado Última observação Último voto
Patricio Moyano Defensores Ativo 122 / 127 40% 1 02.12.2028 -
Enzo González Defensores Negociando 116 / 119 40% 1 02.12.2028 -
Renzo Bacchia Racing Ativo 116 / 134 40% 3 30.11.2028 -
Alexander Sandahl Spartak Myjava Ativo 109 / 89 40% 1 30.11.2028 -
Juan Moreno La Luz Ativo 115 / 111 40% 2 28.11.2028 -
Yeferson Cordova Llaneros Ativo 110 / 101 40% 2 28.11.2028 -
Mohammed Faisal Wikki Tourists Ativo 102 / 71 40% 1 27.11.2028 -
Federico Losas Chacarita Juniors Ativo 127 / 115 40% 1 27.11.2028 -
Luis Ingolotti Atlético Tucumán Ativo 121 / 115 40% 2 26.11.2028 -
Vincent Edafe Warri Wolves Ativo 120 / 115 40% 1 26.11.2028 -
Ifeanyi Emmanuel Niger Tornadoes Ativo 116 / 118 40% 2 24.11.2028 -
Anthony Cletus Bendel Insurance Ativo 94 / 118 40% 1 23.11.2028 -
Esteban Glellel Quilmes Ativo 120 / 106 40% 4 21.11.2028 -
Antonio Carrera Falkenberg Ativo 106 / 116 40% 1 21.11.2028 -
Juan Pablo Rial San Telmo Ativo 118 / 105 40% 3 19.11.2028 -
Mustapha Lawal Shooting Stars Ativo 97 / 98 40% 2 19.11.2028 -
Facundo Vila Estudiantes Ativo 110 / 123 40% 1 18.11.2028 -
Fabrizio Correa Juventud Ativo 130 / 126 40% 3 17.11.2028 -
John Amah Plateau United Ativo 120 / 120 40% 1 13.11.2028 -
Lautaro Herrera Estudiantes Ativo 105 / 105 40% 1 12.11.2028 -
Biola Sabitu Remo Stars Ativo 118 / 89 40% 1 12.11.2028 -
Kevin Chacón Alianza Petrolera Ativo 101 / 98 40% 1 11.11.2028 -
César Carrizo Mineros de Guayana Ativo 104 / 112 40% 1 10.11.2028 -
Ali Ishaku Abia Warriors Ativo 115 / 123 40% 1 09.11.2028 -
Lautaro Maldonado Instituto Ativo 120 / 106 40% 1 09.11.2028 -
Michael Atata Ikorodu City Ativo 114 / 93 40% 1 07.11.2028 -
Miguel Silva Carabobo Ativo 104 / 118 40% 1 06.11.2028 -
César Magallan Estudiantes de Merida Ativo 108 / 115 40% 1 06.09.2028 -
Tomás Pozzo Godoy Cruz Ativo 130 / 136 40% 1 06.09.2028 -
Daniel Barrea Godoy Cruz Ativo 133 / 112 40% 1 04.09.2028 -
Fabricio Criciuma Ativo 85 / 86 62% 1 10.07.2028 Aprovar
Jordan Storey Crewe Alexandra Ativo 124 / 117 40% 1 03.07.2028 -
Reece Oxford Shrewsbury Town Ativo 124 / 130 40% 1 03.07.2028 -
Filip Lissah Shrewsbury Town Ativo 116 / 122 40% 1 26.06.2028 -
Pol Valentín Cambridge United Ativo 125 / 127 40% 2 31.05.2028 -
Igor Tyjon Barrow AFC Ativo 112 / 115 40% 1 31.05.2028 -
Lewie Coyle Accrington Stanley Ativo 122 / 118 40% 1 30.05.2028 -
Jayden Sweeney Grimsby Town Ativo 92 / 95 40% 1 30.05.2028 -
Anílson Pacos de Ferreira Ativo 105 / 116 40% 2 29.05.2028 -
Denzel Hall Rotherham United Ativo 99 / 109 40% 3 29.05.2028 -
Conor Shaughnessy Fleetwood Town Ativo 118 / 104 40% 1 28.05.2028 -
Andy Rinomhota Reading Ativo 133 / 138 40% 1 28.05.2028 -
Ethan Erhahon Cheltenham Town Ativo 112 / 125 40% 1 26.05.2028 -
Ryan Wintle Milton Keynes Dons Ativo 133 / 124 40% 1 22.05.2028 -
Matthew Craig Newport County Ativo 106 / 132 40% 2 19.05.2028 -
Márk Kosznovszky Crewe Alexandra Ativo 123 / 141 40% 1 16.05.2028 -
Liam Bennett Cambridge United Ativo 113 / 89 40% 1 15.05.2028 -
Zé Carlos Gil Vicente Ativo 112 / 112 40% 1 15.05.2028 -
Gonçalo Oliveira Benfica Ativo 113 / 129 40% 3 14.05.2028 -
Martim Cunha Porto Ativo 105 / 113 40% 1 14.05.2028 -
Marc Baró Leiria Ativo 119 / 131 40% 4 13.05.2028 -
Arthur Read Colchester United Ativo 104 / 126 40% 1 12.05.2028 -
Darnell Furlong Leyton Orient Ativo 125 / 116 40% 2 09.05.2028 -
Matthew Litherland Harrogate Town Ativo 114 / 140 40% 1 07.05.2028 -
Saxon Earley Accrington Stanley Ativo 113 / 92 40% 1 07.05.2028 -
André Oliveira Porto Ativo 115 / 132 40% 1 05.05.2028 -
Dean Campbell Northampton Town Ativo 122 / 101 40% 1 04.05.2028 -
Connor Ogilvie Grimsby Town Ativo 105 / 118 40% 1 04.05.2028 -
Tom Pearce Chesterfield Ativo 113 / 112 40% 1 03.05.2028 -
Kyle John Port Vale Ativo 105 / 119 40% 3 22.04.2028 -
James Dornelly Peterborough United Ativo 110 / 92 40% 1 21.04.2028 -
Lloyd Jones Charlton Athletic Ativo 146 / 110 40% 1 20.04.2028 -
Samuel Justo Sporting CP Ativo 114 / 132 40% 3 15.04.2028 -
Ben Cabango Gillingham Ativo 124 / 144 40% 2 14.04.2028 -
Odel Offiah Shrewsbury Town Ativo 120 / 128 40% 3 08.04.2028 -
Kane Wilson Milton Keynes Dons Ativo 109 / 118 40% 1 03.04.2028 -
Di'Shon Bernard Sheffield Wednesday Ativo 141 / 108 40% 1 29.03.2028 -
Daniel Banjaqui Benfica Ativo 136 / 123 40% 2 28.03.2028 -
Bernardo Lima Porto Ativo 115 / 104 40% 1 28.03.2028 -
Federico Bicoro Lillestrom Ativo 107 / 118 40% 2 27.03.2028 -
Marcus McGuane Huddersfield Town Ativo 117 / 132 40% 1 26.03.2028 -
Tomás Pérez Porto Ativo 116 / 136 40% 3 25.03.2028 -
Kaíque Rocha Casa Pia Ativo 114 / 123 40% 3 19.03.2028 -
Tobías Ostchega America Mineiro Ativo 125 / 125 40% 2 18.03.2028 -
Willian Machado Mirassol Ativo 128 / 120 40% 4 16.03.2028 -
Atsuki Ito Bolton Wanderers Ativo 127 / 109 40% 1 15.03.2028 -
Gonçalo Braga Lusitânia Lourosa Ativo 99 / 84 40% 3 14.03.2028 -
Felipe Amaral America Mineiro Ativo 109 / 106 40% 1 12.03.2028 -
Ewerthon Atletico Goianiense Ativo 98 / 122 40% 1 10.03.2028 -
Jayson Molumby West Bromwich Albion Ativo 132 / 134 40% 1 07.03.2028 -
Sydie Peck Swindon Town Ativo 127 / 155 40% 1 06.03.2028 -
Pablo Maia Atletico Goianiense Ativo 142 / 128 40% 1 03.03.2028 -
Dieguinho Ceará Ativo 128 / 115 40% 3 01.03.2028 -
Paulo Vitor Akron Ativo 123 / 114 40% 2 01.03.2028 -
Adriano Mina Atletico Goianiense Ativo 118 / 121 40% 2 29.02.2028 -
Japhet Sery Larsen Philadelphia Union Ativo 133 / 136 40% 2 29.02.2028 -
Sergi Palencia Los Angeles Football Club Ativo 118 / 121 40% 1 25.02.2028 -
Facundo Mura Inter Miami CF Ativo 119 / 131 40% 1 23.02.2028 -
Marcelo Saracchi Houston Dynamo Ativo 139 / 137 40% 1 21.02.2028 -
Baralhas Vitória Ativo 135 / 127 40% 1 17.02.2028 -
Tomás Jacob Atlanta United FC Ativo 131 / 138 40% 1 16.02.2028 -
Nicolás Romero Minnesota United FC Ativo 145 / 135 40% 1 16.02.2028 -
Nathan America Mineiro Ativo 125 / 116 40% 2 15.02.2028 -
Caíque Gonçalves Vitória Ativo 128 / 135 40% 5 11.02.2028 -
Timothy Castagne Stoke City Ativo 156 / 138 40% 2 11.02.2028 -
Nicolás Garayalde Liverpool Montevideo Ativo 121 / 114 40% 1 10.02.2028 -
Edgar Elizalde Defensor Sporting Ativo 121 / 121 40% 1 10.02.2028 -
Éder Ceará Ativo 111 / 112 40% 1 09.02.2028 -
Ben Sheaf Wrexham Ativo 140 / 133 40% 1 08.02.2028 -
Cristian Sención Paysandu Ativo 101 / 112 40% 1 08.02.2028 -
Rodrigues Mirassol Ativo 134 / 117 40% 2 05.02.2028 -
David Ayala Inter Miami CF Ativo 127 / 120 40% 1 02.02.2028 -
Walter Juárez Güemes Ativo 110 / 100 40% 1 31.01.2028 -
Franco Díaz Temperley Ativo 115 / 127 40% 1 31.01.2028 -
Ignacio Vázquez Platense Ativo 126 / 130 40% 2 30.01.2028 -
Emiliano Álvarez Progreso Ativo 126 / 134 40% 1 30.01.2028 -
Andrés Herrera Columbus Crew Ativo 129 / 116 40% 2 26.01.2028 -
Facundo Nadalín San Martín SJ Ativo 115 / 114 40% 1 24.01.2028 -
Bruno Leyes Godoy Cruz Ativo 138 / 129 40% 2 23.01.2028 -
Marcelo Hermes Criciuma Ativo 111 / 102 40% 3 21.01.2028 -
Gabriel Díaz Patronato Ativo 117 / 114 40% 1 19.01.2028 -
Kai Wagner Philadelphia Union Ativo 132 / 124 40% 2 16.01.2028 -
Yeferson Rodallega Envigado Ativo 110 / 130 40% 1 12.01.2028 -
Brian Mieres Mitre Ativo 111 / 121 40% 1 10.01.2028 -
Malte Amundsen Columbus Crew Ativo 130 / 113 40% 1 09.01.2028 -
Alex Luna Instituto Ativo 125 / 131 40% 1 24.12.2027 -
Joel Ezra Enyimba Ativo 85 / 87 40% 1 30.11.2027 -
Adam Phillips Northampton Town Ativo 131 / 112 40% 2 06.07.2027 -
Xavier Amaechi Plymouth Argyle Ativo 103 / 126 40% 1 21.06.2027 -
Declan Frith Peterborough United Ativo 101 / 99 40% 1 14.06.2027 -
Marcus Ifill Crewe Alexandra Ativo 93 / 101 40% 1 14.06.2027 -
Aaron Drinan Swindon Town Ativo 101 / 87 40% 1 08.06.2027 -
Brandon Hanlan Doncaster Rovers Ativo 114 / 108 40% 1 08.06.2027 -
Xavi Sintes Estoril Praia Ativo 113 / 129 40% 1 29.12.2026 -
Lorougnon Gohi Académico de Viseu Ativo 109 / 126 40% 1 21.12.2026 -
Jordan Holsgrove Estoril Praia Ativo 129 / 119 40% 1 21.12.2026 -
Orlando Neto São Paulo Ativo 93 / 108 51% 1 14.12.2026 -
Dany Jean Torreense Ativo 122 / 99 40% 2 03.12.2026 -
Mohammed Bouldini Académico de Viseu Ativo 106 / 97 40% 2 30.11.2026 -
Martín Tejón Maritimo Ativo 128 / 105 40% 2 30.11.2026 -
Aleksandar Busnić Mlada Boleslav Ativo 131 / 122 40% 2 29.11.2026 -
Zé Leite Moreirense Ativo 102 / 115 40% 4 29.11.2026 -
Gabriel Silva Braga Ativo 113 / 145 40% 4 28.11.2026 -
Gianluca Prestianni Benfica Ativo 148 / 134 40% 2 28.11.2026 -
Lucas Duarte Felgueiras Ativo 119 / 84 40% 1 28.11.2026 -
Olívio Tomé Benfica Ativo 106 / 128 40% 1 28.11.2026 -
Juan Muñoz Leiria Ativo 142 / 113 40% 3 27.11.2026 -
Figueiredo Alverca Ativo 140 / 144 40% 1 24.11.2026 -
Luccas Paraízo Leixões Ativo 117 / 89 40% 1 24.11.2026 -
Mourad Tijuana Ativo 118 / 105 40% 2 22.11.2026 -
André Clovis Académico de Viseu Ativo 136 / 133 40% 2 21.11.2026 -
Sam Greenwood Bristol City Ativo 110 / 112 40% 1 21.11.2026 -
Ola Brynhildsen Rapid Wien Ativo 118 / 106 40% 1 17.11.2026 -
Pablo Fernández Leiria Ativo 114 / 99 40% 4 16.11.2026 -
Jackson Muleka Konyaspor Ativo 117 / 128 40% 1 16.11.2026 -
Kevin Velasco Puebla Ativo 108 / 132 40% 1 16.11.2026 -
Matías Lacava Vizela Ativo 99 / 103 40% 2 15.11.2026 -
Renato Kayser Vitória Ativo 111 / 126 40% 1 14.11.2026 -
Héctor Hernández Gil Vicente Ativo 111 / 114 40% 3 13.11.2026 -
Lee Hyun-Ju Arouca Ativo 110 / 127 40% 2 12.11.2026 -
Valery Académico de Viseu Ativo 135 / 130 40% 1 10.11.2026 -
Lucas Di Yorio Santos Laguna Ativo 126 / 120 40% 1 10.11.2026 -
Juninho Pumas UNAM Ativo 132 / 141 40% 1 10.11.2026 -
Vinícius Lopes Santa Clara Ativo 119 / 140 40% 4 09.11.2026 -
Rodrigo Pinheiro Famalicao Ativo 143 / 121 40% 2 08.11.2026 -
Reko Leiria Ativo 133 / 134 40% 1 08.11.2026 -
Soufiane Messeguem Académico de Viseu Ativo 119 / 110 40% 1 06.11.2026 -
Maxime Dominguez Maritimo Ativo 122 / 116 40% 1 06.11.2026 -
Morgan Guilavogui Real Salt Lake Ativo 122 / 141 40% 1 06.11.2026 -
Tamble Monteiro Rio Ave Ativo 104 / 127 40% 2 05.11.2026 -
Luís Esteves Atlas Ativo 130 / 134 40% 1 05.11.2026 -
Pedro Pacheco Santa Clara Ativo 97 / 104 40% 1 04.11.2026 -
Arnau Casas Leixões Ativo 104 / 115 40% 1 02.11.2026 -
Liziero Nacional Ativo 135 / 110 40% 1 31.10.2026 -
Alejandro Piedrahita Deportivo Pereira Ativo 130 / 125 40% 1 29.10.2026 -
Matheuzinho Vitória Ativo 120 / 124 40% 1 29.10.2026 -
Sorriso Famalicao Ativo 147 / 121 40% 2 27.10.2026 -
Francisco Moura Porto Ativo 127 / 142 40% 3 24.10.2026 -
Xeka Estoril Praia Ativo 143 / 117 40% 2 24.10.2026 -
Wessam Abou Ali Columbus Crew Ativo 120 / 134 40% 1 24.10.2026 -
Pedro Lima Sporting CP Ativo 125 / 110 40% 1 24.10.2026 -
João Queirós Oliveirense Ativo 124 / 119 40% 1 24.10.2026 -
Santiago Rodríguez Gimnasia y Esgrima Ativo 120 / 113 40% 1 19.10.2026 -
Matheus Dias Nacional Ativo 108 / 103 40% 1 19.10.2026 -
Cheikh Sabaly Vancouver Whitecaps Ativo 118 / 119 40% 2 17.10.2026 -
Guilherme Neiva AVS Ativo 98 / 93 40% 2 16.10.2026 -
Myrto Uzuni Austin FC Ativo 144 / 127 40% 1 14.10.2026 -
Korede Osundina Casa Pia Ativo 107 / 103 40% 1 13.10.2026 -
Tomás Fernández Aldosivi Ativo 114 / 125 40% 1 12.10.2026 -
Facundo Cáseres Gil Vicente Ativo 113 / 111 40% 1 12.10.2026 -
Alexey Miranchuk Atlanta United FC Ativo 153 / 142 40% 1 12.10.2026 -
Angel Bastunov Vizela Ativo 95 / 117 40% 4 09.10.2026 -
Henrique Araújo Casa Pia Ativo 121 / 126 40% 2 08.10.2026 -
Mohamed-Ali Cho Hull City Ativo 132 / 141 40% 2 07.10.2026 -
Ross Stewart Southampton Ativo 133 / 141 40% 1 06.10.2026 -
Martín Ojeda Orlando City Ativo 140 / 128 40% 3 05.10.2026 -
Álex Arce Independiente Rivadavia Ativo 133 / 113 40% 1 04.10.2026 -
Iano Simão Penafiel Ativo 93 / 96 40% 1 03.10.2026 -
MT Santa Clara Ativo 133 / 115 40% 1 03.10.2026 -
Santi García Gil Vicente Ativo 118 / 116 40% 1 29.09.2026 -
Lucas Souto Defensa y Justicia Ativo 132 / 113 40% 1 28.09.2026 -
Callum Robinson Poltava Ativo 95 / 126 40% 1 27.09.2026 -
Brenner Vasco da Gama Ativo 127 / 139 40% 1 26.09.2026 -
Brian White Vancouver Whitecaps Ativo 120 / 135 40% 1 24.09.2026 -
Miguel Reisinho Feirense Ativo 127 / 124 40% 1 24.09.2026 -
Mathias De Amorim Famalicao Ativo 135 / 110 40% 2 22.09.2026 -
Duk Atlas Ativo 102 / 126 40% 1 22.09.2026 -
Rodrigo Martins Lusitânia Lourosa Ativo 108 / 121 40% 1 22.09.2026 -
Rony Lopes Tondela Ativo 132 / 95 40% 1 22.09.2026 -
Dawda Camara Alverca Ativo 125 / 142 40% 2 19.09.2026 -
Jhonatan Candia Barracas Central Ativo 118 / 128 40% 2 19.09.2026 -
Alexander Aravena Portland Timbers Ativo 122 / 129 40% 1 19.09.2026 -
Ryan Gauld Vancouver Whitecaps Ativo 131 / 140 40% 1 19.09.2026 -
Negueba Mirassol Ativo 129 / 109 40% 1 14.09.2026 -
Andre Green AVS Ativo 111 / 106 40% 1 11.09.2026 -
Francisco Domingues Moreirense Ativo 101 / 113 40% 1 07.09.2026 -
Leandro Lozano Boca Juniors Ativo 123 / 112 40% 1 07.09.2026 -
Julian Herrera Cortulua Ativo 128 / 122 40% 1 07.09.2026 -
Michael Vadulli Audax Italiano Ativo 123 / 93 40% 1 06.09.2026 -
Zian Flemming Ipswich Town Ativo 123 / 117 40% 1 03.09.2026 -
Timo Werner San Jose Earthquakes Ativo 118 / 124 40% 1 02.09.2026 -
Mika Lusitânia Lourosa Ativo 96 / 92 40% 1 02.09.2026 -
Dylan Nandín Arouca Ativo 106 / 122 40% 1 30.08.2026 -
Ole Pohlmann Rio Ave Ativo 140 / 134 40% 1 30.08.2026 -
Dániel Gazdag New England Revolution Ativo 132 / 140 40% 1 28.08.2026 -
Leonardo Campana New England Revolution Ativo 112 / 135 40% 1 25.08.2026 -
Luis Amarilla Cerro Porteno Ativo 128 / 107 40% 1 24.08.2026 -
André Lacximicant Estoril Praia Ativo 89 / 100 40% 1 24.08.2026 -
Pedro Santos Arouca Ativo 104 / 117 40% 1 22.08.2026 -
Joe Gelhardt Hull City Ativo 117 / 107 40% 1 19.08.2026 -
Jair Silva Leiria Ativo 104 / 86 40% 1 18.08.2026 -
Yuri Tanque Criciuma Ativo 127 / 123 40% 1 18.08.2026 -
Espen van Ee Arouca Ativo 122 / 140 40% 1 18.08.2026 -
Ianis Stoica Estrela da Amadora Ativo 122 / 104 40% 1 18.08.2026 -
Geovanni Banguera Deportivo Pasto Ativo 131 / 131 40% 1 17.08.2026 -
Pedro Maranhão Tondela Ativo 120 / 104 40% 1 17.08.2026 -
Callum O'Hare Sheffield United Ativo 149 / 111 40% 1 13.08.2026 -
Nabil Touaizi Alverca Ativo 124 / 122 40% 1 09.08.2026 -
Patrick Sequeira Casa Pia Ativo 121 / 111 40% 1 07.08.2026 -
Marios Vrousai Rio Ave Ativo 138 / 107 40% 1 05.08.2026 -
Leo Román Deportivo La Coruña Ativo 143 / 160 40% 1 03.08.2026 -